EHI
56 47 43 53 62 60 44 22 7 1 0 0 0 0 0 0 0 0 0 0 0 2 7 16 24 33 44 49 43 32 21 13 8 4 1 0 0 0 0 0 0 0 0
42 32 24 28 36 34 24 13 5 2 1 1 1 0 0 0 0 0 0 0 1 2 7 16 24 28 33 34 29 22 15 8 5 3 1 0 0 0 0 0 0 0 0
20 13 6 7 10 10 7 6 7 7 7 5 3 1 0 0 0 0 0 0 1 2 6 14 21 21 20 17 12 9 6 2 1 2 1 0 0 0 0 0 0 0 0
8 5 2 3 4 3 3 5 9 12 11 9 6 2 0 0 0 0 0 0 0 1 3 7 11 13 11 7 3 1 1 0 0 0 0 0 0 0 0 0 0 0 0
4 2 2 4 3 2 1 2 6 9 10 9 5 1 0 0 0 0 0 0 0 0 0 1 2 4 4 2 0 0 0 0 0 0 0 0 0 0 0 0 0 0 0
1 1 2 3 2 0 0 0 2 4 5 5 3 1 0 0 0 0 0 0 0 0 0 0 0 1 1 0 0 0 0 0 0 0 0 0 0 0 0 0 0 0 0
0 0 1 1 0 0 0 0 0 1 2 2 1 0 0 0 0 0 0 0 0 0 0 0 0 0 0 0 0 0 0 0 0 0 0 0 0 0 0 0 0 0 0
0 0 0 0 0 0 0 0 0 0 0 0 0 0 0 0 0 0 0 0 0 0 0 0 0 0 0 0 0 0 0 0 0 0 0 0 0 0 0 0 0 0 0
0 0 0 0 0 0 0 0 0 0 0 0 0 0 0 0 0 0 0 0 0 0 0 0 0 0 0 0 0 0 0 0 0 0 0 0 0 0 0 0 0 0 0
0 0 0 0 0 0 0 0 0 0 0 0 0 0 0 0 0 0 0 0 0 0 0 0 0 0 0 0 0 0 0 0 0 0 0 0 0 0 0 0 0 0 0
0 0 0 0 0 0 0 0 0 0 0 0 0 0 0 0 0 0 0 0 0 0 0 0 0 0 0 0 0 0 0 0 0 0 0 0 0 0 0 0 0 0 0
0 0 0 0 0 0 0 0 0 0 0 0 0 0 0 0 0 0 0 0 0 0 0 0 0 0 0 0 0 0 0 0 0 0 0 0 0 0 0 0 0 0 0
0 0 0 0 0 0 0 0 0 0 0 0 0 0 0 0 0 0 0 0 0 0 0 0 0 0 0 0 0 0 0 0 0 0 0 0 0 0 0 0 0 0 0
0 0 0 0 0 0 0 0 0 0 0 0 0 0 0 0 0 0 0 0 0 0 0 0 0 0 0 0 0 0 0 0 0 0 0 0 0 0 0 0 0 0 0
0 0 0 0 0 0 0 0 0 0 0 0 0 0 0 0 0 0 0 0 0 0 0 0 0 0 0 0 0 0 0 0 0 0 0 0 0 0 0 0 0 0 0
0 0 0 0 0 0 0 0 0 0 0 0 0 0 0 0 0 0 0 0 0 0 0 0 0 0 0 0 0 0 0 0 0 0 0 0 0 0 0 0 0 0 0
0 0 0 0 0 0 0 0 0 0 0 0 0 0 0 0 0 0 0 0 0 0 0 0 0 0 0 0 0 0 0 0 0 0 0 0 0 0 0 0 0 0 0
0 0 0 0 0 0 0 0 0 0 0 0 0 0 0 0 0 0 0 0 0 0 0 0 0 0 0 0 0 0 0 0 0 0 0 0 0 0 0 0 0 0 0
0 0 0 0 0 0 0 0 0 0 0 0 0 0 0 0 0 0 0 0 0 0 0 0 0 0 0 0 0 0 0 0 0 0 0 0 0 0 0 0 0 0 0
0 0 0 0 0 0 0 0 0 0 0 0 0 0 0 0 0 0 0 0 0 0 0 0 0 0 0 0 0 0 0 0 0 0 0 0 0 0 0 0 0 0 0
0 0 0 0 0 0 0 0 0 0 0 0 0 0 0 0 0 0 0 0 0 0 0 0 0 0 0 0 0 0 0 0 0 0 0 0 0 0 0 0 0 0 0
0 0 0 0 0 0 0 0 0 0 0 0 0 0 0 0 0 0 0 0 0 0 0 0 0 0 0 0 0 0 0 0 0 0 0 0 0 0 0 0 0 0 0
0 0 0 0 0 0 0 0 0 0 0 0 0 0 0 0 0 0 0 0 0 0 0 0 0 0 0 0 0 0 0 0 0 0 0 0 0 0 0 0 0 0 0
0 0 0 0 0 0 0 0 0 0 0 0 0 0 0 0 0 0 0 0 0 0 0 0 0 0 0 0 0 0 0 0 0 0 0 0 0 0 0 0 0 0 0
0 0 0 0 0 0 0 0 0 0 0 0 0 0 0 0 0 0 0 0 0 0 0 0 0 0 0 0 0 0 0 0 0 0 0 0 0 0 0 0 0 0 0
0 0 0 0 0 0 0 0 0 0 0 0 0 0 0 0 0 0 0 0 0 0 0 0 0 0 0 0 0 0 0 0 0 0 0 0 0 0 0 0 0 0 0
Wind_Speed
5 5 4 5 4 4 3 3 3 3 2 1 1 2 3 3 4 4 6 7 7 8 6 6 7 7 7 9 8 6 7 6 4 3 5 5 7 8 8 7 7 9 10
4 4 3 3 3 2 3 3 3 3 3 3 3 3 3 3 4 4 5 7 7 7 6 6 6 6 6 7 7 6 5 5 4 4 3 3 4 5 7 6 5 7 6
8 6 5 4 4 4 6 6 7 6 6 6 3 2 2 3 3 5 5 6 7 7 7 7 6 6 6 6 7 7 7 6 5 5 5 4 5 3 3 2 1 2 2
7 7 7 7 7 8 7 8 7 6 6 5 3 4 3 4 5 5 5 7 8 8 7 7 7 6 5 6 7 6 5 6 5 4 4 5 4 3 3 3 1 1 1
9 9 10 10 10 9 7 6 5 4 3 3 3 2 3 4 4 5 7 8 8 8 8 7 7 7 6 7 7 6 6 5 5 4 3 3 3 4 4 3 3 1 2
9 10 10 8 7 5 4 4 4 2 1 2 1 1 2 4 6 7 8 8 7 7 9 8 7 7 6 6 6 6 6 5 4 4 3 3 3 3 3 3 2 2 3
9 8 8 7 6 5 4 3 4 3 2 2 2 1 2 3 5 7 8 9 8 7 8 7 6 5 6 5 5 5 5 5 4 4 3 3 3 2 2 2 1 1 2
7 7 7 6 5 6 5 5 5 4 3 2 1 0 1 2 3 6 7 8 7 8 8 7 5 5 4 4 4 3 4 4 5 5 4 3 2 2 2 2 2 1 1
6 5 5 6 7 7 6 7 6 5 4 4 3 1 1 2 4 6 6 6 6 6 5 3 3 3 3 3 3 3 5 4 4 4 3 2 1 1 2 2 2 3 2
4 5 6 7 6 6 6 6 7 6 5 5 4 2 1 1 3 4 6 6 6 5 5 4 3 2 2 2 3 3 4 4 4 3 3 2 1 0 0 1 1 2 3
1 3 5 6 6 6 6 7 6 6 5 5 4 3 2 1 2 3 5 5 4 5 5 5 5 4 3 2 1 1 2 3 3 3 4 4 3 2 2 2 2 2 3
5 4 4 5 6 7 7 7 7 6 6 6 5 5 4 2 2 3 4 4 4 5 5 5 5 5 4 3 2 2 4 5 6 6 6 5 4 4 3 3 4 3 3
11 10 7 4 5 7 7 7 7 7 7 6 6 5 5 4 3 3 3 3 4 5 5 5 5 5 4 4 4 5 7 8 8 7 7 5 6 6 5 5 5 5 6
12 13 13 10 7 6 7 7 8 7 7 7 7 7 7 6 5 4 3 3 3 4 4 4 4 4 4 5 6 8 9 9 8 7 6 6 6 6 6 6 6 7 7
15 14 13 13 11 10 9 8 8 8 7 7 7 8 7 7 6 5 4 3 3 3 2 3 4 4 4 4 7 7 9 9 9 8 7 7 9 9 8 7 6 7 6
13 13 13 14 13 14 14 12 10 9 7 8 8 7 7 7 6 6 5 3 2 2 1 3 4 4 3 6 9 8 8 9 9 8 7 8 8 11 13 13 11 8 6
14 14 13 13 12 13 14 15 13 9 8 8 8 8 8 7 7 6 5 4 3 2 2 3 4 4 4 9 12 12 8 7 7 7 7 7 8 8 7 10 11 10 10
15 14 12 12 11 11 12 15 15 10 8 8 8 8 9 8 7 7 7 5 4 4 3 4 4 4 5 12 14 14 9 8 7 7 7 8 7 6 7 8 8 7 6
10 10 9 9 10 11 12 12 15 13 9 7 8 9 10 9 8 8 7 6 4 4 4 4 5 5 5 11 14 12 8 7 6 5 6 8 7 10 11 9 8 8 7
10 10 9 9 9 10 10 10 11 12 12 10 8 9 10 11 11 10 8 6 5 5 5 5 6 6 5 10 14 12 7 7 5 5 5 9 9 10 11 8 8 8 5
13 12 11 9 8 9 8 10 9 9 11 13 10 8 9 11 11 9 7 7 6 6 6 6 5 6 6 9 13 13 7 7 6 4 3 3 10 11 11 9 6 6 5
13 12 10 10 8 7 6 8 10 9 10 11 10 8 9 10 10 10 9 8 9 8 7 6 5 4 5 6 10 14 11 10 7 5 4 4 9 10 9 7 9 11 8
14 11 11 11 10 8 6 7 9 10 9 10 10 9 9 9 9 11 12 9 9 8 7 7 6 5 3 4 8 12 15 14 6 6 9 8 8 8 6 8 9 8 5
14 12 11 11 11 9 8 8 8 8 9 9 9 9 8 9 9 9 10 10 10 9 8 8 7 5 4 4 3 4 7 11 7 5 7 7 6 5 4 5 4 3 4
13 11 10 11 11 10 9 10 9 7 8 9 8 8 8 9 10 10 11 13 12 13 11 9 9 9 8 9 12 9 7 7 7 7 4 2 2 2 2 2 2 3 3
13 12 11 11 11 9 9 9 9 8 7 7 7 6 7 7 8 9 9 13 11 16 17 14 12 10 11 15 15 14 15 15 15 8 4 3 3 3 4 4 3 2 3
Wind_Direction
137 127 125 124 121 126 138 161 175 182 168 171 201 237 257 264 271 267 268 274 274 270 259 255 249 239 236 237 233 229 235 238 224 235 264 267 252 248 249 247 248 250 246
145 155 155 143 142 165 184 196 205 208 196 191 199 208 225 251 259 271 282 279 278 276 275 263 257 248 242 244 238 227 231 241 213 205 236 284 293 256 246 246 255 264 260
175 185 185 189 182 192 198 198 204 205 206 205 199 226 269 288 290 290 286 281 280 278 272 264 257 251 240 242 241 231 229 240 238 207 201 217 242 284 284 242 254 319 330
184 188 191 198 202 204 196 190 191 196 206 201 198 221 243 262 267 273 278 284 283 278 271 261 251 245 237 238 242 236 227 227 238 227 214 213 199 220 287 300 274 303 301
188 194 200 205 209 203 192 189 185 196 203 188 194 226 261 270 284 291 290 290 287 278 271 261 250 242 234 233 234 234 226 220 221 212 203 212 216 209 214 267 297 326 278
201 206 212 212 213 202 185 177 170 184 171 130 108 84 308 307 311 308 302 297 291 285 274 264 251 240 234 234 232 227 217 212 203 196 190 184 186 199 195 221 258 302 297
215 218 222 219 213 197 190 179 172 177 149 113 85 52 344 321 307 304 302 299 295 287 278 268 252 239 231 227 220 213 214 206 201 197 197 195 200 195 182 184 218 249 303
229 229 224 206 194 190 188 181 180 180 170 150 139 77 348 318 303 301 300 296 292 286 281 270 252 239 230 224 219 222 222 211 206 201 193 191 204 200 184 172 165 152 8
221 209 190 181 182 187 190 188 185 188 188 179 171 168 302 310 310 310 306 302 302 303 305 292 272 261 247 233 223 230 227 206 198 191 184 183 197 206 195 170 162 152 139
181 173 180 184 188 190 193 190 191 196 196 189 183 171 190 287 307 315 319 316 319 334 353 3 354 327 292 262 236 233 224 192 184 173 169 162 137 85 162 164 162 146 135
182 226 217 204 198 193 193 198 205 205 201 199 190 176 190 231 296 316 322 324 335 350 2 2 1 348 329 309 269 219 170 142 120 111 119 110 106 101 105 114 109 102 107
353 316 264 222 209 205 205 207 210 209 209 202 192 190 192 202 253 287 304 320 337 345 353 357 357 348 348 354 28 81 93 105 107 106 107 110 105 87 84 87 82 82 91
13 2 343 294 246 226 217 216 215 215 211 196 192 193 197 202 225 251 275 304 326 337 344 356 359 358 13 41 64 89 95 99 101 103 107 109 103 87 78 78 78 80 86
21 15 6 346 318 282 245 227 223 215 202 191 191 197 203 205 212 228 251 280 307 321 332 1 17 20 31 61 85 94 96 95 90 88 88 86 90 90 85 80 81 89 87
17 12 5 357 346 330 300 263 238 221 200 190 194 204 205 202 201 209 226 255 287 304 345 31 49 41 41 89 105 103 103 97 89 77 70 70 79 81 81 86 83 87 88
6 1 359 357 352 342 326 297 262 233 203 194 199 202 197 196 196 196 199 210 248 287 34 82 75 55 56 106 109 109 101 98 94 85 73 67 63 74 75 77 77 84 94
355 352 348 345 342 339 338 324 289 253 212 201 198 192 191 195 196 186 181 189 205 211 161 129 104 81 85 112 110 107 105 99 94 89 82 76 67 71 74 64 59 55 59
339 337 332 330 331 332 335 338 328 291 240 208 197 192 188 193 190 180 180 186 186 190 177 156 133 105 106 120 115 109 101 94 89 91 96 90 69 68 81 71 55 41 29
308 306 307 309 314 323 329 334 343 332 294 245 209 196 189 188 185 185 184 180 176 185 181 162 146 121 110 122 123 115 107 99 87 83 87 94 84 77 80 76 65 47 24
305 304 305 310 314 317 321 327 335 342 328 300 255 213 191 186 188 188 180 170 170 180 171 163 157 142 134 131 132 127 122 114 104 83 74 86 96 87 83 80 75 61 31
290 292 293 295 295 304 317 320 321 325 326 318 293 241 204 193 188 182 173 166 166 167 170 165 162 155 153 143 145 145 138 139 131 121 110 101 104 97 89 85 80 86 83
280 281 280 278 277 281 300 309 309 307 316 323 312 271 224 204 191 178 177 172 168 170 173 166 163 166 166 160 158 160 159 152 143 148 151 144 123 108 97 84 87 85 77
275 274 272 275 276 272 271 286 295 303 310 317 320 299 247 215 193 183 181 175 174 176 178 173 174 176 177 184 177 169 168 164 148 158 162 156 135 106 84 77 88 86 82
272 270 268 270 273 268 261 258 268 283 294 301 308 308 275 228 205 191 184 182 182 182 182 180 179 172 168 173 168 154 154 156 142 141 155 150 129 98 89 75 75 88 110
276 270 265 266 268 267 263 262 261 260 271 284 296 303 284 241 211 197 191 188 191 188 182 185 179 175 182 192 175 159 156 157 153 134 110 113 119 109 89 86 92 90 92
281 275 269 264 263 258 257 263 263 252 250 270 287 296 292 261 221 199 194 201 190 188 185 182 178 188 184 171 176 172 166 160 152 136 143 159 168 166 155 149 143 118 111